Theta_e
289 289 289 288 288 287 287 287 287 287 287 287 288 288 288 288 288 288 288 287 288 288 288 288 288 288 288 287 288 287 287 287 287 287 287 287 287 287 287 288 288 288 288 288 288 288 288 288 289 289 289 289 289 289 290 290 290 290 290 290 291 289 289 289 290 295 306 312 313 315 316 316 319 321 321 323 324 325 325 326 325 324 324 324 323
290 289 289 289 288 288 287 287 287 287 287 287 287 287 287 288 287 287 287 287 287 287 287 287 287 287 287 287 287 287 287 287 287 287 287 287 287 287 287 287 287 287 287 287 288 288 288 287 288 288 288 289 289 289 289 289 289 289 289 289 289 289 288 288 288 289 295 303 308 312 315 315 316 318 318 319 322 323 324 324 325 325 324 324 324
290 290 289 289 289 288 288 287 287 287 287 287 287 287 287 287 286 286 286 286 286 286 286 286 286 286 286 286 286 286 286 286 286 286 286 286 286 286 286 286 286 286 286 286 287 287 287 287 287 287 287 287 288 288 288 288 288 289 289 289 288 288 287 287 287 287 289 295 300 303 308 312 315 316 316 316 318 320 322 323 323 324 325 325 324
290 290 289 289 289 289 288 288 288 288 288 287 287 286 286 286 286 285 285 285 285 285 285 285 285 286 286 285 286 285 285 285 285 285 285 285 285 285 285 285 285 285 285 285 285 285 286 286 287 286 286 286 286 286 286 287 287 288 288 288 288 288 287 286 287 286 287 290 294 297 300 305 310 314 314 314 316 317 319 321 322 323 324 325 325
290 290 289 289 289 289 289 288 288 288 288 287 286 286 285 285 285 285 285 285 285 285 284 284 285 285 285 285 286 286 285 285 285 285 285 285 285 285 285 285 285 285 285 284 284 284 284 284 285 285 285 285 285 285 285 285 286 286 287 287 288 288 287 287 286 286 286 287 290 293 295 298 303 310 311 310 312 316 318 320 321 322 323 324 324
290 290 289 289 289 289 289 288 288 288 288 287 286 286 285 285 285 285 285 285 285 285 284 284 285 285 285 285 286 286 286 286 286 286 285 285 285 285 285 285 285 284 284 284 284 284 284 283 284 284 284 284 285 284 284 284 284 284 285 285 286 287 287 287 286 286 286 286 287 289 291 294 297 304 309 307 307 311 314 317 319 320 322 323 323
290 290 289 289 289 289 288 288 288 288 288 288 287 286 286 285 285 285 285 285 285 285 285 285 285 285 285 285 285 285 285 285 286 286 286 285 285 285 285 285 285 285 284 284 284 284 283 283 283 283 283 283 283 283 283 283 283 283 283 283 284 285 285 286 286 285 285 286 287 287 288 290 292 296 302 304 305 307 309 313 317 318 319 321 322
290 290 289 289 289 289 288 288 288 288 288 288 287 287 286 286 286 285 285 285 285 286 286 286 286 286 286 286 285 285 285 285 285 285 285 285 285 285 285 285 284 284 284 284 284 283 283 283 282 282 282 282 282 282 282 282 282 282 282 282 282 283 283 284 284 285 285 285 286 286 287 288 289 291 294 297 301 305 306 308 312 315 316 318 321
290 289 289 289 289 289 288 288 288 288 288 288 288 287 287 287 286 286 286 286 286 286 286 286 286 286 286 286 286 285 285 285 285 285 284 284 284 284 284 284 284 284 283 283 283 283 282 282 282 282 281 281 281 280 280 281 280 281 281 281 281 282 282 283 283 283 284 284 285 286 286 287 288 289 290 291 293 297 300 302 306 311 314 315 318
290 289 289 289 289 289 288 288 288 288 288 288 288 287 287 287 286 286 286 287 287 286 286 286 286 286 286 286 286 285 285 285 284 284 284 283 283 283 282 282 282 282 282 281 281 281 281 281 281 280 280 280 280 280 280 280 280 280 280 280 281 281 281 281 282 282 283 284 284 285 285 286 287 287 288 289 289 290 294 296 299 305 309 312 315
289 289 289 289 289 289 288 288 288 288 288 288 288 288 287 287 286 286 287 287 287 286 286 286 286 286 286 285 285 285 284 284 284 284 283 283 282 282 281 281 281 280 280 280 280 280 280 279 279 279 279 279 279 279 279 279 279 279 280 280 280 280 280 281 281 282 283 283 283 284 284 285 286 286 286 287 287 288 290 292 295 298 303 307 311
290 289 289 289 289 289 289 288 288 288 288 288 288 287 287 287 287 287 287 287 286 286 286 286 286 286 285 285 284 284 283 283 283 283 282 282 281 281 280 280 280 280 279 279 279 279 279 279 279 279 279 279 279 279 279 279 279 279 279 279 280 280 280 280 281 281 282 283 283 283 284 284 284 285 285 285 286 287 288 289 291 293 296 302 307
290 290 290 290 289 289 289 288 288 288 288 288 288 287 287 287 287 287 287 286 286 286 286 286 285 285 284 284 283 283 283 283 282 281 281 281 280 280 279 279 279 279 279 279 279 279 279 279 278 279 279 279 279 279 279 279 279 279 279 279 279 279 280 280 280 280 281 282 283 283 283 283 284 284 284 285 285 285 286 287 290 291 294 299 303
290 290 290 290 289 289 289 288 288 288 288 288 288 287 287 287 287 287 286 286 286 286 285 285 284 284 283 283 283 283 282 282 281 280 280 279 279 279 279 279 279 279 279 278 278 278 278 278 278 278 278 278 278 278 278 278 278 279 279 279 279 279 279 279 280 280 280 281 282 282 282 283 284 284 284 284 284 284 286 289 290 290 292 294 297
290 290 290 290 290 289 289 289 288 288 288 288 288 287 287 287 287 287 286 286 286 285 285 284 284 283 283 283 282 282 281 280 280 279 279 279 278 278 278 278 278 278 278 278 278 278 278 278 278 278 278 278 278 278 278 278 278 278 278 278 279 279 279 279 279 280 280 280 281 281 282 283 284 284 283 284 284 284 285 288 288 287 288 290 292
290 290 290 290 290 290 289 289 289 288 288 288 288 287 287 287 287 286 286 286 285 285 284 283 283 283 283 282 281 281 280 280 279 279 279 278 278 278 278 278 278 278 278 278 278 277 278 278 278 278 278 278 278 278 278 278 278 278 278 278 278 279 279 279 279 280 280 280 280 280 281 282 283 284 284 284 284 283 286 287 286 285 286 288 290
290 290 290 290 290 290 289 289 289 288 288 288 288 288 287 287 286 286 286 285 285 284 283 283 283 283 282 281 280 280 280 279 279 278 278 278 278 278 277 277 277 277 277 277 277 277 277 277 277 277 277 278 278 278 278 278 278 278 278 278 279 279 279 279 280 280 280 280 280 280 280 281 283 285 285 284 284 285 287 287 285 284 285 286 288
290 290 290 290 290 290 290 289 289 289 288 288 288 287 287 287 286 286 285 284 284 283 283 283 283 282 281 280 280 279 279 279 278 278 278 278 278 277 277 277 277 277 277 277 277 277 277 277 277 277 277 278 278 278 278 278 278 279 279 279 279 279 279 279 280 280 280 280 281 281 281 281 282 284 284 284 284 285 285 284 283 283 284 285 286
291 290 290 290 290 290 289 289 289 289 288 288 288 287 287 286 286 285 284 283 283 283 283 283 282 281 280 279 279 278 278 278 278 278 278 278 277 277 276 276 276 276 276 276 276 276 277 277 277 277 277 278 278 278 278 278 279 279 279 279 279 279 279 279 280 280 280 280 281 282 282 282 282 283 283 283 284 284 284 283 283 283 283 283 284
291 291 290 290 290 290 289 289 289 289 288 288 288 287 287 286 286 285 284 283 283 283 282 281 280 280 279 279 278 278 278 278 278 278 278 278 277 276 276 276 276 276 276 276 276 276 276 277 277 277 277 277 277 277 278 278 279 279 279 279 279 279 279 279 280 280 280 280 281 282 282 283 283 283 283 283 283 284 283 283 282 282 283 284 284
291 291 290 290 290 289 289 289 289 289 288 288 287 287 287 286 285 284 283 283 283 282 281 280 279 279 279 278 278 278 278 278 278 278 277 277 277 276 276 275 275 275 275 275 275 275 276 276 276 276 276 276 276 277 277 278 279 279 279 279 279 279 280 280 280 280 280 280 281 281 282 282 283 283 283 283 283 283 283 282 282 282 283 283 284
291 290 290 289 289 289 289 289 289 288 288 288 287 287 286 285 284 284 283 283 282 280 280 279 279 278 278 278 278 278 278 278 277 277 277 277 277 276 276 275 275 275 275 275 275 275 275 275 275 276 276 276 276 276 276 277 277 278 278 279 279 279 279 279 280 280 280 280 281 281 282 282 283 283 283 283 283 283 283 282 282 282 282 282 283
290 290 290 289 289 289 289 289 289 288 288 287 287 286 285 284 284 284 282 281 280 279 279 278 278 278 278 278 278 278 277 277 277 277 277 276 276 276 276 276 275 275 274 274 274 274 274 274 274 275 275 275 275 275 276 276 277 277 278 278 279 279 279 279 280 280 280 280 281 281 281 281 282 282 282 282 283 283 283 282 281 281 282 282 282
290 290 290 289 289 289 289 289 288 288 287 286 285 284 284 284 284 282 281 279 279 278 278 278 277 277 277 277 277 277 277 277 277 277 277 276 276 276 276 276 275 274 274 274 274 274 274 274 274 274 275 275 275 276 276 277 277 277 278 278 278 278 279 279 279 280 280 280 280 280 280 280 281 281 282 282 283 283 283 281 281 281 281 281 282
290 290 290 290 290 289 289 288 288 287 286 285 284 284 284 283 282 280 279 278 278 278 277 277 277 277 277 277 277 277 277 276 276 277 276 276 276 276 276 275 275 274 273 273 273 273 274 274 274 274 275 275 275 275 276 276 276 276 276 277 277 277 277 278 278 278 278 278 279 279 279 279 280 280 280 281 282 282 282 281 281 281 281 281 282
291 290 290 290 289 289 288 287 286 285 285 284 284 284 283 281 280 279 278 278 278 277 277 277 277 276 276 276 276 276 276 276 276 276 276 276 275 275 275 275 274 273 273 273 273 273 274 274 274 274 274 274 274 274 275 275 275 275 276 276 276 276 276 276 276 277 277 277 277 278 278 278 278 279 279 280 280 280 281 281 280 280 281 281 282
290 290 290 289 288 287 287 286 285 285 285 285 283 282 280 279 278 278 278 277 277 277 277 276 276 276 276 276 276 276 276 276 276 275 275 274 274 274 274 273 273 272 272 272 273 273 273 273 273 273 274 274 274 274 274 274 275 275 275 275 275 275 275 275 276 276 276 276 276 277 277 278 278 278 278 279 279 280 280 280 280 280 281 281 282
290 289 289 288 287 286 285 285 285 285 284 283 281 280 279 278 278 278 277 277 277 277 276 276 276 275 275 275 274 274 274 275 275 274 273 273 273 272 272 272 272 272 272 272 272 272 273 273 273 273 273 273 273 273 273 273 273 274 274 274 274 274 275 275 275 275 276 276 276 277 277 277 277 278 278 278 279 279 279 279 280 280 281 281 281
289 288 287 286 285 285 285 285 284 283 282 280 279 279 278 278 277 277 278 277 277 276 275 275 275 274 274 273 273 272 272 273 273 273 272 272 272 272 271 271 272 271 272 272 272 272 272 272 272 272 271 271 271 271 272 272 272 272 273 273 273 274 274 275 275 275 276 277 277 277 277 277 278 278 278 278 278 279 280 280 280 281 281 282 283
288 287 286 286 285 285 285 284 282 281 280 279 278 278 278 277 277 277 277 277 277 276 275 274 274 273 272 272 272 271 271 271 271 272 271 271 271 271 271 271 271 271 271 271 271 271 271 271 271 271 271 271 271 271 271 271 271 271 272 272 272 273 273 273 274 275 275 276 276 277 277 278 279 279 279 279 279 279 280 280 280 281 282 284 285
287 286 285 285 285 284 283 281 280 279 278 278 278 277 277 278 278 277 277 276 276 276 275 274 274 273 272 271 271 271 271 271 271 271 270 270 269 269 269 270 270 270 270 270 270 270 270 270 270 270 270 270 270 270 270 270 270 270 271 271 271 271 272 272 273 273 274 274 275 276 276 277 278 279 279 279 279 279 279 280 280 280 281 282 283
286 286 285 284 283 282 281 280 279 278 278 277 277 277 277 277 277 277 277 276 276 275 275 275 274 274 272 271 270 270 271 271 271 270 269 268 268 268 268 268 268 269 269 269 269 269 269 268 268 268 268 269 269 269 269 270 270 270 271 271 271 271 272 272 272 273 273 274 275 276 276 277 278 278 278 279 279 279 280 280 281 281 282 283 284
285 285 284 282 281 280 279 278 278 277 277 277 277 277 276 276 276 276 277 277 277 276 275 275 274 274 273 271 270 270 270 271 270 269 268 268 267 267 267 267 268 268 268 267 267 267 266 266 266 266 266 266 267 267 267 268 268 268 269 269 270 271 271 272 272 272 273 273 274 274 275 276 277 277 278 278 278 278 279 279 280 281 282 283 284
284 283 282 281 280 279 278 277 277 277 277 277 276 276 276 275 274 274 275 275 276 277 277 275 274 273 273 273 272 270 270 270 270 269 268 267 266 266 266 266 266 266 266 265 264 264 263 263 263 264 264 264 264 265 265 266 266 267 267 268 268 269 270 271 271 272 272 273 273 273 274 274 275 276 276 277 277 277 278 278 279 279 280 281 282
282 281 280 279 278 278 277 277 277 277 277 276 276 275 275 274 274 274 273 273 274 275 276 276 274 273 273 273 273 272 270 269 269 268 267 266 266 265 265 265 265 264 264 263 262 262 262 262 262 262 262 262 263 263 264 264 265 266 267 267 268 269 270 270 271 272 272 273 273 274 274 274 275 276 276 277 277 277 278 278 279 279 280 281 282
280 279 279 278 277 277 277 277 277 276 276 276 275 275 274 274 274 273 273 273 273 273 273 274 274 274 273 273 273 272 271 269 268 268 267 267 266 265 263 264 264 263 263 262 261 261 261 261 261 261 261 262 262 262 263 263 264 264 265 266 267 267 268 269 270 270 271 272 273 273 274 275 275 276 277 277 278 278 279 279 280 280 281 281 283
279 278 278 277 277 277 277 277 276 276 275 275 275 274 274 273 273 273 273 273 272 272 272 273 273 273 273 273 272 271 270 269 269 268 267 266 266 264 263 263 263 262 262 261 261 261 260 261 261 261 261 261 262 262 262 263 263 264 265 265 266 266 267 268 269 269 270 271 271 272 273 274 275 275 276 276 277 278 278 279 279 280 281 282 282
278 277 277 277 277 277 276 276 276 275 275 274 274 274 273 273 273 272 272 272 272 271 271 271 271 271 272 272 271 270 269 269 269 268 268 266 265 264 263 262 261 261 261 261 261 261 260 261 261 261 261 261 261 261 262 262 263 263 264 264 265 266 266 267 268 269 270 270 271 272 272 273 274 275 275 276 277 277 278 278 279 280 281 282 283
277 277 277 277 276 276 276 276 275 275 274 274 274 273 273 273 272 272 272 271 271 271 271 270 271 271 271 270 270 269 268 268 268 267 267 265 264 263 262 261 261 260 260 261 261 260 260 260 260 260 260 260 261 261 261 262 262 262 263 263 264 265 266 267 268 268 269 269 270 271 273 273 274 275 275 276 277 277 278 279 279 280 281 282 282
277 277 277 276 276 276 275 275 275 274 274 274 273 273 272 272 272 271 271 271 270 271 270 270 270 270 270 269 269 268 267 267 267 266 265 265 264 263 262 262 261 261 260 260 260 260 260 260 260 260 260 260 260 261 261 261 262 262 262 263 263 264 265 266 267 267 268 269 269 270 272 273 273 274 275 276 277 277 278 279 280 281 281 281 281
277 276 276 276 276 275 275 275 274 274 274 273 273 272 272 272 271 271 270 270 270 270 270 270 270 270 269 269 268 267 266 266 266 265 265 264 264 263 263 262 261 261 260 260 260 260 260 260 260 260 260 260 260 260 261 261 261 262 262 262 263 263 264 264 265 266 266 267 268 269 270 271 272 273 274 275 276 277 278 279 279 280 281 281 282
276 276 276 276 275 275 275 274 274 273 273 273 272 272 271 271 271 270 270 269 269 269 269 270 270 270 269 269 268 267 266 266 266 265 265 265 264 263 262 262 261 261 260 260 260 260 260 260 260 260 260 260 261 261 261 261 261 262 262 262 262 263 263 264 264 265 265 266 267 268 269 270 271 272 274 275 276 277 277 278 279 280 281 282 282
276 276 275 275 275 275 274 274 274 273 273 272 272 271 271 271 270 270 269 269 269 269 269 269 269 269 269 268 268 267 266 266 266 265 265 264 264 263 262 262 261 261 261 261 261 261 261 261 261 261 261 261 261 261 261 262 262 262 262 262 263 263 263 264 264 265 265 266 267 268 269 270 271 272 273 274 275 276 277 278 279 280 281 282 283
276 275 275 275 274 274 274 274 273 273 273 272 272 271 271 270 270 269 268 268 269 269 269 269 269 269 268 268 268 267 267 266 266 265 265 265 264 263 263 262 261 261 261 261 261 261 261 261 261 261 261 262 262 262 262 262 262 262 263 263 263 263 264 264 265 265 266 266 267 268 269 269 270 271 273 274 275 276 277 278 279 280 281 282 283
275 275 275 274 274 274 274 273 273 273 272 272 271 271 271 270 269 269 268 268 268 268 269 269 268 268 268 268 267 267 267 266 266 266 266 265 265 264 263 262 262 262 262 262 262 262 262 261 262 262 262 262 262 262 263 263 263 263 263 263 264 264 264 264 265 265 266 267 267 268 269 269 270 271 272 273 274 275 276 277 279 280 281 282 283
275 274 274 274 274 274 273 273 272 272 272 271 271 271 270 270 269 268 268 268 268 268 268 268 268 268 268 267 267 267 267 266 266 266 266 265 265 264 263 262 262 262 262 262 262 262 262 262 262 262 262 262 262 263 263 263 263 264 264 264 264 264 265 265 265 265 266 266 267 267 268 268 269 270 271 272 273 274 276 278 279 280 281 282 283
274 274 274 274 274 273 273 272 272 271 271 271 270 270 270 269 268 268 268 268 268 268 268 268 268 268 267 267 267 267 267 266 266 266 266 266 265 264 264 263 262 262 262 262 262 262 262 262 262 263 263 263 263 263 264 264 264 264 264 264 264 264 265 265 265 265 265 266 266 266 267 267 268 269 270 271 272 274 275 277 277 278 279 281 282
274 273 273 273 273 273 272 272 271 271 270 270 270 270 269 269 268 268 268 268 268 268 268 268 268 267 267 267 267 267 267 266 266 266 266 266 265 265 264 263 263 262 262 262 263 263 263 263 263 263 263 263 264 264 264 265 265 265 265 265 265 265 265 265 265 265 265 266 266 266 266 267 268 269 270 271 272 273 274 275 276 277 278 280 281
273 273 273 273 273 272 272 271 271 270 270 270 270 269 269 268 268 268 268 268 268 268 267 267 267 267 267 267 267 267 266 266 266 266 266 266 265 265 264 263 263 263 263 263 263 263 263 264 264 264 264 264 264 265 265 266 266 266 266 266 267 266 266 266 266 266 266 266 266 266 267 267 268 269 270 271 272 272 273 274 275 276 277 279 281
273 273 273 273 272 272 271 271 270 270 270 269 269 269 268 267 267 267 267 267 268 267 267 267 267 267 267 267 267 267 266 266 266 266 266 266 265 265 264 263 263 263 263 263 263 263 264 264 264 264 264 265 265 265 266 266 267 267 267 268 268 268 268 267 267 267 267 267 267 267 267 267 268 268 269 270 271 271 272 273 274 275 277 279 281
273 273 272 272 271 271 270 270 270 270 269 269 269 268 267 267 267 267 267 267 267 267 267 267 267 267 267 267 267 266 266 266 266 266 266 266 265 265 264 263 263 263 263 263 263 264 264 264 264 265 265 265 265 266 267 267 267 268 268 268 269 269 269 268 268 268 268 268 268 268 268 268 268 269 269 270 271 271 271 273 275 276 278 279 281
Wind_Speed
18 18 17 17 17 17 17 17 17 17 17 17 18 19 19 20 20 21 22 23 23 24 25 26 28 29 29 30 32 32 33 34 34 35 36 37 37 38 39 39 40 41 41 42 43 45 46 46 45 44 43 44 44 43 42 42 43 43 43 45 46 46 45 43 45 51 51 46 43 39 31 27 29 32 35 39 40 39 38 35 32 29 29 31 31
19 20 20 19 18 18 18 18 18 18 17 17 17 17 17 18 19 20 21 22 23 25 25 26 27 28 29 30 31 32 33 34 35 37 38 39 40 40 41 42 42 43 43 44 44 45 47 49 49 49 48 48 48 47 46 45 45 46 47 47 47 46 45 44 43 48 53 52 48 46 40 33 30 30 30 34 38 39 39 37 34 32 29 28 30
18 21 22 21 20 19 19 18 18 17 17 16 16 16 16 17 17 19 20 21 22 24 25 26 27 28 29 31 32 33 34 35 36 38 39 40 41 42 44 45 46 47 47 48 48 48 49 50 51 52 52 53 52 51 50 49 47 48 48 49 50 49 45 43 42 44 51 56 54 51 49 43 38 34 31 32 33 35 39 39 37 36 33 30 29
18 21 22 21 20 19 19 18 17 17 16 16 16 16 16 17 18 19 20 20 22 23 25 27 28 30 32 33 34 35 36 37 38 39 40 41 42 44 45 46 47 49 50 50 51 51 52 52 53 54 54 55 56 55 54 52 51 50 50 49 50 51 49 45 43 43 47 53 55 54 53 51 47 43 39 37 33 31 34 38 39 39 37 35 33
18 20 21 21 19 18 17 17 17 17 17 16 16 16 17 18 20 21 22 23 24 26 27 28 30 32 34 35 37 38 39 40 40 41 42 43 44 46 47 48 49 50 51 51 51 52 53 54 54 54 55 56 57 57 56 55 53 52 52 52 50 51 51 48 45 44 46 50 54 54 54 54 52 50 46 43 40 35 32 34 37 39 40 39 38
18 19 21 21 19 18 17 17 17 17 18 18 18 18 19 20 22 24 25 27 28 29 30 31 33 34 36 37 38 39 40 41 42 43 44 45 46 47 48 50 51 52 53 53 53 53 53 54 54 54 55 56 57 57 56 56 55 53 53 53 51 51 51 50 48 46 47 50 52 53 53 54 54 53 50 46 45 41 37 36 36 37 40 42 42
19 20 22 22 20 19 18 18 18 19 19 20 20 20 21 23 24 26 27 29 31 32 33 34 35 36 37 38 39 40 40 41 41 42 43 45 46 47 49 50 51 53 54 55 55 55 55 54 54 54 53 53 54 54 54 54 54 54 53 51 50 49 49 50 49 47 48 50 51 52 52 52 53 54 52 49 47 45 40 36 35 36 39 43 45
21 22 23 23 22 20 20 20 20 21 21 22 22 23 24 25 26 27 29 31 32 34 34 36 37 38 39 40 40 41 42 43 43 43 44 44 45 47 48 50 52 53 54 55 55 55 56 56 56 54 52 50 50 50 50 50 51 52 52 49 47 46 47 48 48 47 47 48 51 52 51 52 52 52 51 49 47 47 41 34 33 36 37 41 46
21 22 23 24 23 22 21 22 22 22 23 24 24 25 26 27 28 29 30 32 33 34 35 36 38 39 40 41 41 42 43 44 45 45 46 46 47 48 49 50 52 53 54 55 55 54 55 55 55 54 51 49 48 46 46 46 46 47 48 47 46 46 46 46 46 47 47 48 50 51 51 53 53 49 48 47 45 46 44 39 39 40 36 36 41
21 22 24 25 23 22 22 23 24 24 24 25 26 27 28 28 29 30 31 33 34 35 36 37 38 40 41 42 42 43 44 45 45 46 47 47 48 49 51 51 51 52 53 54 55 54 53 52 51 50 49 48 46 45 43 43 43 44 45 44 44 45 46 46 45 45 45 47 50 50 50 54 53 47 46 48 46 45 45 44 44 44 40 36 39
21 22 24 25 23 23 23 24 25 25 26 26 27 28 29 30 31 31 32 34 35 35 37 38 39 40 41 42 43 44 45 45 46 47 47 47 48 49 51 52 51 50 50 51 52 52 51 49 48 47 47 46 46 45 44 44 43 44 45 45 44 44 44 45 46 45 45 46 49 49 48 52 54 49 46 48 47 43 43 42 43 45 42 37 39
22 23 25 25 24 24 24 25 25 26 27 27 28 28 30 31 32 33 34 35 36 37 38 39 40 41 42 43 44 45 46 47 47 48 47 47 48 49 50 51 51 50 50 49 50 50 49 48 48 47 47 46 46 46 47 47 46 45 46 47 46 45 44 44 45 46 45 46 49 50 50 51 54 51 47 47 45 42 43 44 43 44 42 38 39
22 24 25 25 25 25 25 26 26 27 27 28 28 29 31 32 33 34 35 36 37 38 39 40 41 42 42 44 46 47 48 49 48 48 48 48 48 48 48 48 49 49 49 49 48 49 49 49 49 49 48 48 48 48 49 49 49 48 48 48 48 48 47 45 45 45 45 47 49 52 52 50 52 52 48 44 44 45 46 45 41 41 41 40 43
24 25 26 25 26 26 26 26 27 27 28 28 29 30 32 33 34 35 36 37 38 40 41 42 42 43 44 45 48 49 50 49 48 48 48 48 48 47 46 46 46 47 47 48 48 48 49 49 50 51 50 49 49 49 50 50 51 51 50 50 50 50 49 47 46 45 45 46 50 53 53 49 49 51 47 43 43 46 44 41 39 41 44 46 49
26 27 26 26 26 27 26 26 27 27 28 29 30 32 34 35 36 36 37 38 40 40 41 43 43 45 46 47 49 51 51 49 48 48 49 49 48 47 45 45 46 46 47 47 47 48 49 49 51 52 52 51 50 50 51 52 52 52 52 52 52 51 50 49 48 46 46 46 49 53 53 49 47 49 48 43 43 45 43 41 43 45 47 50 53
28 29 28 27 27 27 26 26 26 27 28 29 31 33 36 36 37 37 38 40 41 41 42 43 45 47 48 49 50 51 52 50 49 49 50 49 48 46 45 45 46 46 48 48 48 48 49 50 51 52 53 54 53 52 52 52 53 53 54 54 54 53 52 51 49 48 47 47 49 51 52 51 49 48 47 43 42 44 43 43 46 47 46 48 52
31 31 30 29 28 28 27 27 27 27 28 31 33 35 37 37 38 38 40 41 41 42 43 45 47 49 50 50 51 52 53 52 50 50 50 50 48 47 46 46 46 46 48 48 49 50 50 51 52 53 54 56 55 55 54 52 52 53 55 55 55 54 54 53 50 49 48 48 49 50 51 52 49 45 44 44 42 41 41 44 47 46 43 44 49
32 32 32 31 29 28 27 28 28 29 30 32 35 37 38 38 39 39 40 41 42 43 46 48 50 51 51 51 51 52 54 54 52 51 50 50 48 46 45 46 46 47 49 49 50 50 52 53 53 53 55 56 56 55 54 51 50 51 54 54 55 55 55 54 52 50 49 49 49 50 50 51 49 46 46 46 42 39 41 45 47 44 41 43 47
33 33 34 32 30 28 28 29 29 30 31 33 35 37 38 39 39 39 40 42 43 46 48 50 52 52 52 52 52 52 54 54 53 51 51 50 48 46 45 45 46 48 49 49 51 52 53 55 55 55 55 56 56 54 51 48 48 50 51 52 54 56 56 55 53 50 48 49 51 50 50 50 49 49 49 48 45 42 42 44 45 43 41 43 46
33 34 35 34 32 30 29 30 31 31 33 34 36 38 39 39 40 40 41 43 46 49 50 50 52 54 53 53 52 52 53 53 53 52 51 50 49 47 45 45 47 49 50 50 51 52 53 55 55 54 54 53 52 50 46 43 45 48 50 51 54 56 55 54 52 49 48 50 51 51 51 50 50 50 49 48 47 44 43 43 44 43 40 41 44
33 35 36 36 34 32 31 32 32 33 34 35 37 38 39 40 40 41 43 46 48 50 51 51 52 54 55 53 53 53 53 53 53 53 52 51 50 48 46 45 47 48 48 47 47 48 50 52 53 54 54 52 50 49 47 44 44 47 49 51 53 54 53 53 52 50 49 50 51 52 53 51 50 49 49 50 49 45 43 43 44 42 39 40 44
34 36 37 37 35 33 33 33 34 34 35 36 37 39 39 39 41 42 45 48 49 50 51 52 53 54 55 54 53 53 53 53 53 53 52 51 51 50 48 48 48 46 43 43 45 47 50 53 53 54 53 51 50 50 49 47 46 47 49 50 51 52 52 52 52 51 51 51 51 51 50 48 48 48 48 50 51 49 47 46 46 44 41 41 43
33 34 35 35 34 34 34 34 35 35 35 36 37 38 38 39 42 45 46 47 48 50 52 52 52 54 55 55 54 54 54 53 53 52 52 52 52 52 51 50 49 47 43 43 46 48 49 50 52 52 51 49 48 48 48 47 47 48 49 49 49 49 49 50 50 48 48 49 49 49 49 48 49 51 51 52 54 53 51 50 49 47 45 44 45
32 32 33 33 34 34 35 36 36 35 35 35 36 37 39 42 45 46 45 46 48 50 51 52 52 53 54 55 55 55 54 53 53 53 53 53 53 53 53 51 51 48 45 44 45 46 46 47 49 49 48 47 48 48 48 49 49 51 52 52 51 50 49 49 49 47 47 49 52 54 55 54 54 55 56 56 56 55 55 54 52 51 49 48 48
31 32 32 33 34 35 36 36 35 34 34 34 36 39 42 44 45 45 45 46 47 49 50 51 51 52 53 54 55 55 54 54 54 55 55 55 54 55 54 53 52 49 45 46 47 47 46 47 48 49 50 51 52 52 53 53 53 54 54 54 53 52 52 52 52 53 54 56 58 60 61 60 60 60 60 58 57 57 57 57 56 55 53 50 48
31 32 33 34 34 35 35 34 33 33 33 35 39 42 43 44 44 45 46 46 47 49 50 50 51 51 52 53 54 55 55 55 56 56 56 55 56 56 55 54 53 49 46 46 48 48 48 49 50 52 53 53 53 53 54 54 53 53 53 53 53 54 54 54 55 56 58 60 62 63 64 63 62 60 57 57 57 58 58 58 57 56 52 49 49
32 32 33 34 33 33 32 31 32 33 35 39 41 42 42 42 43 45 46 46 47 48 49 49 49 50 51 52 53 54 55 56 57 56 55 55 55 55 54 55 55 52 51 51 51 51 52 52 52 53 53 54 54 55 55 56 55 55 56 56 57 57 56 54 53 53 55 57 60 62 62 61 59 57 54 53 54 56 58 57 57 56 53 50 50
32 32 32 32 31 30 30 31 34 36 39 40 41 41 42 42 43 45 45 46 46 46 47 47 49 49 49 50 51 52 54 55 55 54 52 52 52 52 52 53 54 54 54 54 53 54 55 56 56 57 57 58 59 59 59 59 59 58 57 57 57 57 54 52 50 50 50 52 53 55 57 56 55 55 54 53 54 55 56 55 55 54 52 49 49
31 30 30 29 29 29 31 34 36 38 40 40 41 42 42 43 44 45 45 44 44 44 45 46 47 47 46 46 47 47 49 52 53 51 50 49 49 49 50 51 51 52 53 53 53 55 58 60 61 61 61 61 61 62 62 61 59 59 59 58 58 58 56 54 52 51 49 48 48 50 51 52 54 55 53 52 51 50 50 49 49 49 47 45 44
29 28 28 28 29 31 33 36 37 38 39 40 42 43 43 43 43 44 44 43 42 43 44 44 45 43 42 43 43 42 43 46 49 50 50 49 49 49 49 50 51 52 52 51 52 55 58 59 60 60 59 58 59 60 59 58 56 57 57 56 55 54 54 54 54 53 52 51 52 52 51 50 51 50 47 46 46 47 47 47 46 45 43 41 41
27 27 27 28 31 33 35 37 37 38 39 40 42 44 44 44 43 41 41 42 43 44 44 44 44 42 39 39 41 42 43 44 47 49 49 48 48 49 51 52 53 52 50 49 51 54 56 56 57 59 58 56 57 58 58 57 57 58 58 58 56 55 55 56 56 55 54 53 54 55 54 53 52 50 49 49 49 49 49 49 49 49 48 46 46
25 26 28 30 32 34 35 36 37 38 39 40 41 42 43 44 44 43 41 41 43 46 46 46 45 44 42 40 40 43 47 48 48 48 47 47 49 50 51 51 51 49 47 47 49 52 51 49 51 54 53 53 54 54 52 51 50 49 48 49 49 47 47 49 50 50 50 49 50 51 51 49 49 49 49 49 48 46 45 45 45 45 44 42 42
26 28 30 32 33 34 35 36 37 38 38 39 40 40 40 41 43 45 44 44 44 46 47 47 46 45 45 44 43 44 47 49 49 49 48 47 48 49 49 49 48 46 45 45 47 50 50 49 51 52 52 53 54 53 52 52 52 51 50 50 50 49 48 46 46 46 47 47 48 51 53 52 52 51 50 49 49 48 48 48 49 48 44 40 40
27 29 31 33 34 35 35 36 36 37 37 38 38 38 39 39 41 43 46 47 47 48 48 49 48 46 46 48 47 47 48 49 50 51 49 47 46 46 47 50 50 47 44 44 47 51 52 52 52 52 51 52 52 51 51 51 50 49 50 51 52 52 50 48 46 47 48 48 48 49 51 53 55 55 55 54 53 52 51 51 52 52 50 48 47
29 31 32 33 33 34 34 35 35 36 37 37 37 37 38 39 40 41 43 45 47 49 50 50 50 48 48 49 50 49 49 49 50 50 49 47 46 45 46 51 54 52 49 48 49 50 50 51 52 51 51 51 50 49 49 49 46 44 43 44 43 43 41 41 41 40 41 42 43 44 45 47 48 49 51 51 52 52 51 50 50 50 48 47 45
30 31 32 32 33 33 34 34 35 35 35 35 36 36 38 39 39 40 41 43 44 46 49 50 51 50 50 49 49 51 51 50 50 50 49 49 47 44 45 50 54 54 53 51 49 49 50 50 51 52 51 51 51 50 49 50 49 47 47 47 47 48 48 49 49 48 45 44 42 41 41 43 43 44 46 47 48 48 48 47 46 46 46 45 43
31 31 32 32 32 33 33 33 33 34 34 34 35 36 37 38 39 39 40 42 43 45 47 49 50 52 53 51 50 51 52 52 52 52 51 49 48 45 46 49 51 52 53 52 50 50 51 50 50 50 50 50 49 48 48 48 47 46 44 44 44 44 45 45 45 46 47 49 48 46 44 42 42 42 42 44 46 47 47 46 46 45 45 45 44
31 31 31 32 32 32 33 33 33 33 33 34 35 36 37 38 38 39 39 41 42 44 46 48 49 50 52 53 52 52 53 54 55 55 54 52 49 48 49 49 49 50 52 52 51 50 51 51 50 50 49 49 49 49 48 48 47 45 45 45 45 45 44 43 41 41 41 43 45 46 46 45 45 43 43 43 44 44 44 45 45 46 46 46 44
31 31 31 31 32 32 32 32 32 32 33 34 35 36 37 37 38 38 39 40 42 43 45 47 49 49 50 52 52 52 54 55 56 56 56 55 53 51 50 51 51 51 51 52 51 50 51 52 52 51 50 50 49 49 48 47 47 46 45 45 46 47 45 44 43 43 42 42 42 42 42 42 41 41 41 42 43 42 42 42 44 45 47 46 46
30 30 30 31 31 31 31 31 32 32 33 35 36 36 37 37 37 38 38 39 41 43 45 47 48 49 49 49 49 50 52 55 56 55 55 56 55 54 53 52 52 52 52 52 52 51 52 53 53 52 52 51 50 49 48 48 48 47 46 46 46 47 46 44 43 42 41 41 39 39 39 39 39 38 39 40 41 41 42 42 43 44 45 46 46
29 29 30 30 30 30 30 30 31 32 34 35 36 36 36 36 36 37 38 39 40 43 45 46 48 48 48 48 47 47 49 52 54 54 54 55 56 56 55 54 53 53 53 53 53 53 53 53 53 52 52 51 50 49 49 48 48 48 47 47 48 49 50 50 49 49 48 47 47 46 45 43 41 40 40 40 40 40 40 41 41 42 43 44 44
29 29 29 29 29 30 30 31 32 33 34 35 35 35 35 36 36 36 37 38 39 42 44 47 48 48 48 47 47 47 48 50 52 53 54 55 56 56 55 54 53 52 52 52 53 53 53 54 53 52 52 51 50 49 49 48 48 48 48 48 49 50 50 50 49 48 47 48 49 49 48 45 42 41 40 39 37 37 38 40 41 40 41 42 42
28 28 28 28 28 29 30 32 33 34 35 35 35 34 35 35 36 36 37 38 39 41 43 46 48 49 48 48 47 47 48 50 51 52 54 55 56 55 54 53 53 52 52 52 51 51 52 53 52 51 51 50 49 49 48 47 47 47 47 48 48 49 49 49 48 45 43 42 42 42 43 43 43 43 42 40 38 38 38 38 39 39 40 41 41
27 27 27 27 28 29 30 32 34 35 35 34 34 34 34 35 35 36 36 38 39 40 42 45 47 48 49 49 48 48 49 49 50 52 54 55 55 54 53 53 53 53 53 52 51 50 50 51 51 51 50 49 48 47 47 46 46 46 47 48 48 48 48 48 47 46 44 44 43 42 42 42 42 42 42 40 40 40 39 38 38 38 38 38 38
27 27 27 28 28 30 31 32 33 34 34 34 34 34 34 34 35 36 36 38 39 40 42 44 45 47 48 49 49 49 49 49 50 51 52 53 53 53 52 53 53 54 54 53 52 51 50 51 51 51 51 50 48 47 46 45 45 45 46 47 48 48 47 47 47 45 43 42 41 40 39 40 41 42 43 43 43 43 43 41 40 39 38 37 37
26 26 27 28 29 31 33 33 33 33 32 33 34 34 34 34 34 36 37 38 39 40 42 44 45 46 47 48 49 49 49 49 50 51 51 52 52 52 52 53 53 54 54 54 53 52 52 51 51 52 52 51 50 48 46 45 44 44 45 46 47 48 47 45 44 45 45 46 46 45 44 43 43 44 44 43 42 41 40 39 38 37 37 36 36
25 26 27 28 30 32 33 33 32 32 32 32 33 34 34 34 35 35 36 38 39 40 42 43 44 46 47 47 48 49 49 49 50 50 51 51 51 51 52 53 54 55 56 55 55 54 53 52 52 51 51 51 50 48 46 44 43 43 43 44 45 46 46 44 43 43 44 45 47 48 48 47 47 47 45 42 40 39 40 41 41 40 38 37 36
25 26 28 29 31 32 32 32 31 31 31 32 32 33 33 34 34 35 36 38 39 40 42 43 44 45 46 47 48 48 49 49 50 50 50 50 50 50 52 53 55 56 57 57 56 55 54 52 52 51 50 50 49 48 45 43 41 40 41 41 42 42 42 42 42 42 42 41 41 43 45 46 47 46 44 42 41 40 40 41 42 40 38 38 38
26 27 28 30 30 30 30 30 30 31 31 32 32 33 33 33 34 35 36 37 39 40 41 42 44 45 46 47 48 48 48 49 50 50 50 50 50 51 52 54 55 56 57 57 57 56 54 53 52 51 50 49 48 46 44 42 40 38 38 37 38 38 37 37 38 38 39 39 40 41 41 43 45 45 44 44 45 43 41 42 43 42 41 41 40
26 28 29 29 29 29 28 28 29 30 31 31 32 32 32 33 34 35 36 38 39 40 41 42 43 45 46 46 48 48 48 49 49 50 50 50 51 52 53 55 56 56 57 57 57 56 55 54 53 52 50 48 46 44 42 41 39 38 36 35 34 34 34 34 35 34 34 35 38 40 41 44 47 48 48 49 48 47 46 46 45 44 44 43 41
27 28 29 28 28 27 27 27 28 29 30 30 31 32 32 33 34 35 36 37 39 40 41 42 43 44 45 46 47 47 48 48 49 49 50 50 51 52 54 55 57 57 58 58 58 56 55 55 54 52 50 47 44 41 40 38 37 35 34 33 32 32 31 31 32 33 33 33 34 35 37 40 44 48 51 51 49 47 46 45 44 44 44 43 40
Wind_Direction
7 2 358 357 359 1 2 4 6 7 7 6 5 4 3 3 4 4 3 2 1 1 360 359 358 357 357 357 356 356 355 355 354 353 352 350 349 348 346 345 344 342 341 339 338 337 336 335 333 332 331 329 328 327 324 323 321 320 319 317 317 321 325 325 322 312 299 294 297 297 301 307 303 300 301 298 295 296 295 292 292 290 281 272 267
358 357 354 350 349 352 354 356 356 356 356 356 356 357 356 356 357 357 357 357 356 357 356 356 357 356 355 355 354 354 353 353 352 352 351 349 348 347 345 344 342 340 339 337 336 335 333 332 332 330 329 327 325 324 323 321 320 318 317 317 317 318 322 323 321 317 307 300 297 293 294 299 299 298 306 306 300 297 295 292 290 289 286 279 271
348 350 349 346 343 343 344 345 346 345 345 346 346 348 348 348 350 350 351 352 351 352 352 352 353 353 353 353 352 352 351 351 351 350 349 348 346 345 344 342 341 340 338 337 335 334 331 330 329 329 328 326 324 323 321 319 318 316 314 314 315 315 318 320 318 316 311 305 302 298 295 295 293 294 299 303 303 299 294 292 291 288 285 282 278
339 340 341 340 337 335 333 333 334 335 337 339 340 340 340 341 342 343 344 345 346 347 348 348 349 350 350 350 349 350 349 348 348 347 347 346 344 343 342 341 340 339 337 336 335 333 331 329 327 327 326 324 323 321 320 318 316 314 312 310 311 311 313 315 314 313 311 306 302 301 299 296 291 289 293 297 299 301 297 293 292 289 285 282 281
326 328 330 331 329 327 325 324 325 328 331 334 335 334 334 334 336 338 340 342 344 345 345 346 346 347 347 347 346 346 345 345 345 344 344 343 342 341 340 338 337 336 334 333 332 331 329 328 326 325 323 322 321 319 318 317 314 312 310 308 307 307 308 309 310 309 309 305 302 300 299 297 293 286 287 294 296 297 299 296 294 292 288 283 280
310 313 317 320 321 321 320 320 323 326 329 330 330 329 329 331 334 337 339 340 342 342 342 342 342 342 343 343 342 341 341 340 340 340 339 338 338 337 335 334 333 332 331 330 329 328 326 325 324 323 321 319 318 317 315 314 312 310 309 307 306 304 304 305 306 306 305 303 302 301 298 297 295 287 284 290 294 294 297 297 297 296 290 285 282
298 302 307 311 314 317 318 318 321 325 326 327 327 327 328 329 332 335 336 337 338 338 338 338 338 338 338 338 338 337 336 336 336 335 334 334 333 331 330 329 328 327 326 325 324 324 322 322 320 319 318 316 315 314 312 310 309 308 307 306 305 303 301 301 302 303 303 302 300 301 299 297 296 292 288 289 289 288 293 300 303 301 295 288 285
292 296 302 307 311 314 315 315 317 321 322 323 324 325 326 327 329 331 333 334 334 334 334 334 334 334 334 333 333 333 332 332 332 332 331 330 329 327 326 325 323 322 321 320 320 319 318 317 316 315 314 312 310 309 308 307 305 304 304 304 303 302 300 299 300 300 300 299 298 298 299 296 295 295 294 293 290 286 289 298 298 295 296 294 288
289 295 300 305 310 313 312 311 314 316 317 319 321 321 322 324 325 327 330 331 331 331 330 330 330 330 330 329 329 329 329 329 329 329 328 327 326 324 322 321 320 319 317 316 316 315 314 313 312 311 309 307 306 305 304 303 302 301 301 301 301 300 299 298 298 297 297 296 295 296 297 295 294 296 297 296 296 292 291 293 290 286 290 295 290
286 292 298 304 308 309 308 308 310 312 313 315 317 318 318 319 320 323 326 327 327 327 326 326 326 326 325 325 324 324 324 324 325 325 325 324 322 321 320 318 317 316 315 314 313 312 311 310 308 307 306 305 305 304 304 303 301 299 298 298 297 297 297 296 295 295 294 293 292 293 294 292 291 295 296 295 297 297 294 294 291 287 288 291 291
284 290 298 304 306 305 306 306 306 308 310 312 314 315 314 314 316 319 321 323 323 322 321 322 322 321 320 320 319 320 320 320 321 321 321 320 319 319 318 316 315 313 312 311 310 310 309 307 307 306 305 305 304 304 304 303 301 300 298 297 295 293 293 293 292 291 290 289 289 289 289 288 289 292 294 294 297 298 296 293 291 289 290 290 290
284 291 300 304 305 305 305 304 304 305 307 309 310 311 310 310 313 315 317 318 317 316 316 316 316 316 315 315 316 316 317 318 318 318 318 318 318 317 316 314 312 311 309 307 306 306 306 306 306 305 304 304 304 303 302 301 300 299 298 296 295 292 289 289 289 289 287 286 286 284 283 285 287 289 291 293 296 295 293 291 289 288 289 287 283
285 291 299 303 305 305 304 302 302 303 305 307 306 306 306 307 310 312 313 312 311 311 311 311 311 312 312 313 314 314 315 316 316 316 316 316 317 316 313 310 308 307 306 305 304 304 304 304 304 304 303 303 302 301 301 300 300 299 297 295 293 291 289 287 286 286 284 283 282 281 280 282 284 286 288 291 292 292 291 291 288 285 284 282 276
283 289 295 300 303 305 303 301 301 302 303 304 303 301 303 305 307 308 307 306 305 306 307 307 309 310 311 312 312 312 313 314 315 315 315 315 316 314 310 307 305 303 302 302 302 302 303 303 303 302 302 301 301 300 299 299 299 298 297 294 292 291 290 288 286 284 283 282 280 279 280 280 280 282 284 286 288 289 289 288 285 282 280 279 277
281 285 290 296 301 302 303 302 301 301 302 301 299 298 301 303 304 303 302 301 301 302 304 306 308 309 310 311 311 311 312 313 314 315 315 315 315 312 308 305 303 302 301 301 301 301 302 303 302 301 301 300 299 299 299 298 298 297 295 293 291 290 289 288 286 284 283 282 281 280 281 279 278 279 281 282 283 284 284 283 282 282 281 280 279
280 283 287 293 298 300 302 301 299 299 300 298 296 296 299 300 299 299 297 297 299 301 303 305 307 308 309 309 310 310 312 313 314 314 314 315 314 311 307 304 303 302 302 302 302 302 302 302 301 301 300 299 299 299 299 297 295 293 292 291 290 288 287 286 286 285 283 282 281 280 280 279 279 278 278 278 279 281 282 282 281 281 282 282 280
281 282 286 291 296 298 300 300 299 298 297 296 295 296 297 296 296 295 295 295 298 300 303 305 306 307 307 309 310 311 312 313 314 314 314 314 313 310 307 305 304 302 302 303 303 303 302 302 301 300 299 299 299 299 299 296 293 290 290 290 288 287 285 286 286 285 284 283 281 280 279 280 279 276 275 276 277 276 277 279 280 281 283 284 280
282 283 285 290 294 295 295 297 299 299 298 297 297 296 295 294 293 293 293 295 298 301 304 305 305 305 307 309 311 311 311 312 313 314 314 313 312 310 307 305 304 303 303 303 303 303 302 301 301 299 297 298 299 299 298 294 289 287 287 287 286 285 284 285 285 285 285 284 282 280 279 279 277 275 275 276 273 270 271 274 279 282 283 283 280
284 285 287 290 291 290 291 294 297 298 299 299 298 296 294 293 292 292 293 296 300 302 303 304 304 306 308 310 311 311 311 312 313 313 312 312 312 310 307 305 304 303 303 303 302 302 301 301 301 299 298 298 298 298 296 292 287 284 284 283 282 283 284 284 284 283 284 283 281 280 278 278 278 276 276 276 274 271 271 273 277 281 281 281 280
288 288 287 287 288 287 289 292 294 297 299 299 298 296 294 292 292 292 295 298 301 302 302 304 306 307 309 310 311 311 311 311 312 312 312 312 312 311 308 305 304 304 303 303 302 301 301 300 300 299 298 297 296 295 291 287 284 283 282 280 279 281 284 285 284 283 283 282 280 278 277 277 277 276 276 276 276 275 275 275 277 280 280 279 278
288 286 285 285 285 285 287 289 293 296 298 299 298 296 294 292 292 294 297 299 300 301 303 306 308 309 310 310 310 311 311 311 311 312 312 312 313 312 308 305 305 304 302 301 299 297 297 297 297 297 296 294 293 291 288 285 282 282 281 279 278 280 282 282 282 283 282 280 279 278 278 277 276 275 275 276 276 276 277 279 280 280 278 277 276
286 283 283 283 283 284 285 287 291 294 296 297 297 295 292 291 292 295 298 299 300 303 305 308 309 309 309 310 310 310 311 311 311 312 312 312 312 311 309 307 307 304 299 296 295 294 295 295 295 295 295 293 291 290 289 286 283 281 280 279 278 279 281 281 281 281 279 277 276 276 276 275 275 274 274 275 276 277 279 281 283 281 278 276 275
285 283 283 284 284 284 285 287 290 292 293 293 292 291 291 293 295 297 298 300 303 305 307 309 310 309 309 309 309 310 310 311 311 311 312 312 311 311 310 309 309 305 298 293 293 293 292 293 293 294 294 292 290 289 288 287 285 283 281 280 279 280 280 280 279 276 274 273 273 272 272 272 272 273 273 274 276 277 279 283 285 282 279 277 276
286 286 286 287 286 285 285 286 288 289 289 289 289 291 294 295 296 297 300 304 306 307 309 310 310 309 309 309 309 310 311 312 311 311 311 312 312 312 312 311 310 307 299 293 291 290 288 289 290 291 290 289 287 285 284 283 282 280 279 279 279 279 279 278 275 273 273 273 273 273 273 271 270 270 271 273 274 276 279 283 284 282 280 279 278
286 286 287 287 286 285 284 284 285 285 286 289 292 294 296 296 297 299 303 306 308 308 309 309 309 309 309 309 310 311 312 311 311 311 312 313 313 313 313 311 310 307 300 294 292 290 287 287 287 287 286 286 285 285 283 281 280 279 278 279 279 278 277 276 275 275 275 275 275 275 275 274 274 273 272 273 275 276 278 281 282 283 282 280 279
283 284 284 284 283 282 281 281 282 285 289 293 295 295 295 297 300 303 306 308 308 308 308 308 308 309 309 310 311 311 312 312 313 313 314 315 315 314 313 312 310 307 300 295 293 291 289 288 287 287 286 286 286 285 284 282 281 280 279 279 278 277 276 276 276 276 276 276 276 276 275 276 276 277 276 276 275 274 275 278 280 281 280 279 279
281 282 282 281 279 278 279 282 285 290 294 295 295 295 296 300 304 305 307 308 308 307 307 307 308 308 310 311 312 312 313 314 314 315 317 317 316 315 313 311 309 306 302 299 297 296 294 291 289 288 287 286 285 283 282 281 280 279 279 278 278 279 279 278 277 276 276 276 276 276 276 276 276 276 275 274 272 272 272 274 276 277 277 278 278
280 280 279 278 277 279 283 288 292 295 295 294 294 297 300 304 305 305 307 307 307 307 307 307 308 310 312 313 313 314 314 314 314 315 316 315 313 311 309 307 305 303 301 300 299 297 295 292 290 289 288 286 284 283 282 281 280 279 279 279 279 280 281 280 279 278 277 276 276 276 276 276 276 276 275 272 271 271 271 272 273 274 275 276 275
278 278 277 277 280 284 289 293 295 295 294 295 297 301 303 305 305 304 305 306 307 307 307 308 309 312 313 312 311 310 310 311 313 314 313 310 308 305 303 302 301 299 298 297 297 295 293 292 291 289 288 286 286 285 284 283 282 281 280 279 278 278 278 277 276 276 276 276 276 276 277 278 278 277 275 272 271 272 273 273 274 274 274 272 270
277 277 278 281 286 291 294 295 294 294 296 299 301 303 303 303 304 304 305 306 306 306 307 308 310 312 311 310 309 306 303 305 310 312 312 310 308 305 303 300 299 298 297 297 297 294 292 292 291 289 288 288 287 286 285 284 284 283 282 281 280 278 276 275 273 272 273 273 273 274 275 277 277 275 270 269 272 275 276 275 275 273 269 264 262
276 278 282 288 292 294 294 293 294 296 299 302 303 303 302 302 302 303 305 306 306 307 307 309 311 313 312 309 309 309 307 307 311 313 312 310 307 304 303 301 300 299 299 299 297 294 292 292 290 289 288 287 286 285 285 285 284 283 282 281 280 278 276 275 273 273 273 273 273 273 274 273 272 270 269 271 274 276 276 276 275 271 267 264 263
278 284 290 293 293 293 292 294 297 300 302 303 303 303 303 304 304 304 306 307 308 309 309 310 312 315 316 314 311 312 314 316 317 316 312 309 307 305 304 303 301 300 300 299 296 293 291 291 289 288 288 287 286 286 286 285 285 285 284 284 284 282 278 276 276 275 274 272 271 270 270 269 268 269 270 272 273 274 275 276 275 272 268 266 262
287 292 294 293 292 292 294 297 300 302 302 303 303 303 305 306 307 308 309 310 310 310 311 313 314 316 318 318 316 316 318 320 319 316 313 311 310 308 306 303 300 300 300 298 294 292 291 290 288 288 287 287 286 286 285 283 282 282 281 280 281 280 278 277 278 277 274 271 270 268 266 265 265 267 269 270 272 273 273 273 273 272 270 267 264
293 293 292 291 292 295 298 300 302 302 303 303 304 305 306 308 309 310 312 313 313 312 312 314 317 319 319 319 319 321 322 321 319 317 316 313 311 309 306 303 301 300 298 295 292 292 292 291 289 288 287 287 288 288 287 286 286 285 283 281 279 278 277 277 278 277 273 270 270 269 267 265 265 265 267 268 270 271 271 271 272 272 270 269 268
292 291 291 293 295 298 300 301 302 302 303 304 305 306 308 309 310 311 313 314 315 314 313 313 316 319 319 319 319 321 323 322 319 317 316 315 313 312 309 305 303 303 301 299 297 296 294 292 291 290 289 288 287 287 286 286 285 284 282 280 279 278 277 277 278 278 275 272 270 269 268 268 267 266 265 266 267 268 269 270 271 270 267 265 264
290 291 293 295 298 300 301 301 302 302 303 304 306 307 308 309 311 312 313 314 314 314 314 314 316 317 318 320 321 322 322 322 320 318 317 317 318 315 309 306 306 307 306 304 302 300 297 295 293 292 292 291 290 289 288 287 286 284 281 279 277 276 274 273 273 273 274 273 272 272 271 270 269 267 266 266 265 265 266 267 267 267 266 263 261
291 294 296 298 300 300 301 301 302 302 304 305 306 307 309 310 312 313 313 314 314 314 314 316 317 318 319 321 324 324 322 321 320 319 319 321 320 317 312 309 309 308 307 306 304 302 299 297 295 293 293 292 291 290 289 288 288 287 285 284 283 282 281 279 277 274 272 269 269 270 271 270 269 270 269 268 266 265 265 266 266 266 267 266 263
294 297 298 300 301 301 301 302 302 303 305 306 307 308 310 311 313 314 314 315 315 314 315 317 318 320 321 323 325 325 324 322 321 322 323 324 322 318 315 312 309 307 305 305 305 302 300 298 297 295 293 292 291 290 289 287 286 285 283 282 281 280 279 279 278 277 275 272 270 269 270 269 269 270 270 269 268 267 266 266 266 265 265 265 265
296 298 299 300 301 301 301 302 303 304 306 307 309 311 312 313 314 315 315 315 315 315 317 318 319 322 324 325 326 327 325 324 324 324 325 324 322 319 316 313 310 307 306 306 305 304 302 301 300 299 296 294 293 291 289 288 286 284 282 281 279 277 276 274 272 273 274 273 271 270 270 270 270 270 269 268 267 266 266 267 267 265 263 263 264
297 299 299 299 300 300 301 302 304 306 307 309 311 312 313 314 316 316 315 316 316 316 318 319 320 323 325 326 328 328 326 324 324 324 324 323 322 320 317 315 312 310 308 307 307 306 304 303 302 301 298 296 294 292 290 288 286 284 281 279 277 275 272 269 268 268 269 269 269 268 267 266 267 268 268 267 265 265 265 266 267 265 263 263 264
298 298 298 298 299 300 301 303 305 307 309 311 312 313 313 315 316 316 315 316 317 318 318 319 321 324 325 326 328 329 325 323 324 324 323 323 323 321 319 317 315 313 311 310 309 307 306 305 303 302 300 298 296 294 292 290 287 285 282 279 277 275 272 269 267 266 265 265 265 265 264 265 266 268 269 269 268 267 266 267 268 268 266 265 263
297 297 298 299 300 302 304 306 308 310 311 312 312 313 314 315 315 316 316 317 318 319 320 320 322 324 325 327 329 329 326 324 325 325 324 324 323 321 320 320 318 317 315 313 311 310 308 306 305 303 301 300 298 296 294 292 289 286 283 280 278 276 274 273 272 271 269 269 268 267 265 266 267 267 267 267 267 268 267 268 270 269 268 266 262
296 297 298 300 302 304 306 308 310 312 312 312 313 313 315 315 315 316 317 318 320 321 321 321 323 324 325 327 329 329 328 327 327 326 325 325 324 323 323 323 322 320 319 317 315 313 311 308 306 305 303 302 300 298 296 294 291 287 284 281 279 276 274 273 272 270 269 268 267 265 262 261 262 264 264 264 266 269 270 270 271 271 270 268 264
296 297 299 302 304 306 308 309 311 311 311 312 313 314 314 314 315 316 318 319 321 323 323 323 324 325 326 328 330 330 329 329 329 328 327 326 326 326 326 326 324 323 322 321 320 318 314 311 309 307 306 304 303 301 298 296 292 288 284 281 278 275 272 271 271 271 269 267 265 263 261 260 260 262 263 263 263 265 268 271 273 275 273 270 266
297 299 302 304 306 308 309 310 310 311 311 312 313 313 314 314 315 317 320 321 323 324 324 324 326 326 327 328 330 331 331 331 331 330 329 328 328 328 328 328 327 325 324 324 322 320 318 314 312 310 308 306 305 303 300 297 294 290 287 283 280 276 273 271 269 269 269 266 262 260 259 258 258 258 259 260 262 264 267 272 276 277 275 272 269
299 302 304 306 308 309 310 311 311 311 312 312 313 313 314 315 317 319 321 323 324 325 325 326 327 327 328 329 330 331 331 332 332 331 330 330 330 330 330 329 328 327 326 325 324 322 320 317 314 312 309 308 306 304 301 299 295 292 289 286 283 281 279 275 270 265 261 258 257 257 259 260 259 258 259 262 264 266 268 273 276 275 274 273 271
302 304 306 308 309 310 311 311 312 312 312 313 313 313 314 316 318 320 322 323 325 326 326 327 328 328 329 330 331 331 332 332 332 332 331 331 331 332 332 330 329 328 327 326 325 324 321 319 316 314 312 310 308 305 303 300 297 293 290 288 285 282 281 278 275 270 264 260 258 257 257 257 257 258 259 262 264 264 265 268 271 272 272 272 273
304 306 307 309 310 310 311 311 311 312 312 313 313 313 315 317 319 321 323 324 325 327 328 328 329 329 329 331 332 332 333 333 333 333 333 333 333 334 333 331 329 329 328 327 326 325 323 321 319 317 315 312 310 307 305 303 299 295 293 289 286 284 282 278 275 272 269 265 262 258 255 254 255 256 258 258 257 259 263 266 268 271 272 272 275
304 306 308 309 309 310 310 310 311 312 313 313 313 314 316 318 320 322 323 324 325 327 328 329 329 330 330 331 332 333 333 334 334 334 335 335 335 335 333 332 331 330 329 328 328 327 326 325 323 321 318 316 313 311 308 306 302 299 297 293 290 288 285 281 276 271 267 264 261 257 254 252 251 250 251 251 251 254 260 263 265 269 271 272 276
305 307 308 309 309 309 309 309 310 312 313 313 313 315 317 319 321 322 324 325 326 327 329 329 329 330 331 332 333 334 334 335 335 335 336 337 336 335 333 332 331 332 331 330 330 329 328 327 326 324 321 319 317 314 311 308 304 302 300 299 296 293 289 285 280 275 270 265 261 256 253 250 247 246 247 248 250 254 258 260 264 269 271 273 278
307 308 308 308 308 309 309 309 310 311 312 312 314 316 318 320 322 323 324 326 327 328 329 329 330 331 332 333 333 334 335 335 336 337 337 337 337 336 335 334 333 333 333 332 331 331 330 329 328 326 324 322 321 318 315 311 308 306 304 303 300 297 292 285 279 274 271 268 265 261 256 253 250 248 247 248 250 254 257 260 264 267 268 272 277